When you browse on this site, cookies collect data to enhance your experience and personalize the content and advertising you see.
Visit our Privacy Policy to learn more. By continuing to use the site, you agree to this use of cookies and data.
  • In Latvia
  • List of Countries
  • For 7 days
  • Water Temperature
  • Satellite Maps
  • Weather Map
  • Weather Widgets
  • user-avatar
    Login

    Hourly Weather Andora

    Today, 20 November, Tuesday

    Time Temperature Precipitation Wind Pressure Humidity
    00:00 0°C° 0 mm 1 mps 611 mmHg 93%
    01:00 0°C° 0.1 mm 1 mps 611 mmHg 93%
    02:00 0°C° 0.1 mm 1 mps 611 mmHg 94%
    03:00 -1°C° 0.1 mm 1 mps 611 mmHg 95%
    04:00 -1°C° 0 mm 1 mps 611 mmHg 95%
    05:00 -1°C° 0 mm 1 mps 611 mmHg 95%
    06:00 -1°C° 0 mm 1 mps 611 mmHg 95%
    07:00 0°C° 0.1 mm 1 mps 612 mmHg 91%
    08:00 0°C° 0.1 mm 1 mps 612 mmHg 87%
    09:00 -1°C° 0.1 mm 2 mps 612 mmHg 84%
    10:00 -1°C° 0.3 mm 2 mps 612 mmHg 83%
    11:00 +1°C° 0.3 mm 2 mps 613 mmHg 83%
    12:00 +1°C° 0.3 mm 2 mps 613 mmHg 83%
    13:00 +2°C° 0.1 mm 2 mps 613 mmHg 84%
    14:00 +2°C° 0.1 mm 2 mps 613 mmHg 85%
    15:00 +2°C° 0.1 mm 2 mps 613 mmHg 86%
    16:00 +2°C° 0.4 mm 2 mps 613 mmHg 89%
    17:00 +1°C° 0.4 mm 2 mps 613 mmHg 92%
    18:00 -1°C° 0.4 mm 2 mps 612 mmHg 96%
    19:00 +1°C° 0.3 mm 1 mps 613 mmHg 96%
    20:00 +1°C° 0.3 mm 1 mps 613 mmHg 95%
    21:00 +1°C° 0.3 mm 1 mps 614 mmHg 95%
    22:00 0°C° 0 mm 1 mps 614 mmHg 95%
    23:00 -1°C° 0 mm 0 mps 614 mmHg 95%

    Tomorrow, 21 November, Wednesday

    Time Temperature Precipitation Wind Pressure Humidity
    00:00 -1°C° 0 mm 0 mps 614 mmHg 95%
    01:00 -1°C° 0 mm 1 mps 614 mmHg 95%
    02:00 -1°C° 0 mm 1 mps 614 mmHg 94%
    03:00 -2°C° 0 mm 1 mps 614 mmHg 93%
    04:00 -2°C° 0 mm 1 mps 615 mmHg 92%
    05:00 -2°C° 0 mm 1 mps 615 mmHg 91%
    06:00 -2°C° 0 mm 1 mps 615 mmHg 90%
    07:00 -1°C° 0 mm 1 mps 616 mmHg 86%
    08:00 +1°C° 0 mm 1 mps 617 mmHg 81%
    09:00 +2°C° 0 mm 1 mps 618 mmHg 76%
    10:00 +3°C° 0 mm 2 mps 619 mmHg 73%
    11:00 +4°C° 0 mm 2 mps 619 mmHg 71%
    12:00 +5°C° 0 mm 2 mps 620 mmHg 68%
    13:00 +5°C° 0 mm 2 mps 620 mmHg 69%
    14:00 +4°C° 0 mm 2 mps 620 mmHg 70%
    15:00 +4°C° 0 mm 2 mps 620 mmHg 71%
    16:00 +2°C° 0 mm 2 mps 620 mmHg 77%
    17:00 +2°C° 0 mm 1 mps 619 mmHg 83%
    18:00 0°C° 0 mm 1 mps 619 mmHg 89%
    19:00 0°C° 0 mm 1 mps 619 mmHg 86%
    20:00 -1°C° 0 mm 1 mps 620 mmHg 84%
    21:00 -1°C° 0 mm 1 mps 620 mmHg 81%
    22:00 -1°C° 0 mm 1 mps 620 mmHg 79%
    23:00 -1°C° 0 mm 1 mps 620 mmHg 76%

    Day after tomorrow, 22 November, Thursday

    Time Temperature Precipitation Wind Pressure Humidity
    00:00 -1°C° 0 mm 1 mps 620 mmHg 74%
    01:00 -1°C° 0 mm 1 mps 620 mmHg 75%
    02:00 -1°C° 0 mm 1 mps 621 mmHg 77%
    03:00 -1°C° 0 mm 1 mps 621 mmHg 78%
    04:00 -1°C° 0 mm 1 mps 621 mmHg 79%
    05:00 -1°C° 0 mm 1 mps 621 mmHg 80%
    06:00 -1°C° 0 mm 1 mps 621 mmHg 81%
    07:00 0°C° 0 mm 1 mps 622 mmHg 76%
    08:00 +2°C° 0 mm 1 mps 623 mmHg 70%
    09:00 +4°C° 0 mm 1 mps 624 mmHg 65%
    10:00 +4°C° 0 mm 2 mps 624 mmHg 61%
    11:00 +5°C° 0 mm 2 mps 624 mmHg 57%
    12:00 +6°C° 0 mm 2 mps 625 mmHg 53%
    13:00 +5°C° 0 mm 2 mps 624 mmHg 55%
    14:00 +5°C° 0 mm 2 mps 624 mmHg 58%
    15:00 +5°C° 0 mm 2 mps 624 mmHg 60%
    16:00 +3°C° 0 mm 2 mps 623 mmHg 64%
    17:00 +2°C° 0 mm 2 mps 623 mmHg 68%
    18:00 +1°C° 0 mm 1 mps 622 mmHg 72%
    19:00 +1°C° 0 mm 1 mps 623 mmHg 70%
    20:00 +1°C° 0 mm 1 mps 623 mmHg 69%
    21:00 +1°C° 0 mm 1 mps 623 mmHg 67%
    22:00 +1°C° 0 mm 1 mps 623 mmHg 69%
    23:00 +1°C° 0 mm 1 mps 623 mmHg 70%

    23 November, Friday

    Time Temperature Precipitation Wind Pressure Humidity
    00:00 +1°C° 0 mm 1 mps 623 mmHg 72%
    01:00 +1°C° 0 mm 1 mps 623 mmHg 73%
    02:00 +1°C° 0 mm 1 mps 622 mmHg 74%
    03:00 +1°C° 0 mm 1 mps 622 mmHg 75%
    04:00 +1°C° 0 mm 1 mps 622 mmHg 74%
    05:00 +1°C° 0 mm 1 mps 622 mmHg 73%
    06:00 +2°C° 0 mm 1 mps 622 mmHg 72%
    07:00 +2°C° 0.1 mm 1 mps 622 mmHg 72%
    08:00 +2°C° 0.1 mm 2 mps 623 mmHg 72%
    09:00 +3°C° 0.1 mm 2 mps 623 mmHg 71%
    10:00 +3°C° 0.7 mm 2 mps 623 mmHg 75%
    11:00 +3°C° 0.7 mm 2 mps 622 mmHg 78%
    12:00 +3°C° 0.7 mm 2 mps 622 mmHg 82%
    13:00 +3°C° 1.5 mm 2 mps 621 mmHg 84%
    14:00 +3°C° 1.5 mm 2 mps 620 mmHg 87%
    15:00 +3°C° 1.5 mm 2 mps 620 mmHg 90%
    16:00 +2°C° 2.3 mm 2 mps 620 mmHg 92%
    17:00 +2°C° 2.3 mm 2 mps 619 mmHg 94%
    18:00 +2°C° 2.3 mm 2 mps 619 mmHg 96%
    19:00 +2°C° 1 mm 2 mps 619 mmHg 96%
    20:00 +1°C° 1 mm 2 mps 619 mmHg 96%
    21:00 +1°C° 1 mm 2 mps 619 mmHg 96%
    22:00 +1°C° 0.1 mm 2 mps 619 mmHg 96%
    23:00 +2°C° 0.1 mm 1 mps 620 mmHg 96%

    24 November, Saturday

    Time Temperature Precipitation Wind Pressure Humidity
    00:00 +1°C° 0.1 mm 1 mps 620 mmHg 96%
    01:00 +1°C° 0 mm 1 mps 620 mmHg 95%
    02:00 0°C° 0 mm 1 mps 620 mmHg 95%
    03:00 -1°C° 0 mm 1 mps 620 mmHg 94%
    04:00 -1°C° 0 mm 1 mps 620 mmHg 93%
    05:00 -1°C° 0 mm 1 mps 620 mmHg 92%
    06:00 -2°C° 0 mm 1 mps 620 mmHg 91%
    07:00 0°C° 0 mm 1 mps 621 mmHg 88%
    08:00 +1°C° 0 mm 1 mps 622 mmHg 85%
    09:00 +2°C° 0 mm 1 mps 623 mmHg 82%
    10:00 +3°C° 0 mm 1 mps 623 mmHg 80%
    11:00 +3°C° 0 mm 1 mps 623 mmHg 77%
    12:00 +4°C° 0 mm 1 mps 623 mmHg 74%
    13:00 +4°C° 0 mm 1 mps 623 mmHg 75%
    14:00 +4°C° 0 mm 1 mps 623 mmHg 75%
    15:00 +3°C° 0 mm 1 mps 622 mmHg 76%
    16:00 +2°C° 0 mm 1 mps 622 mmHg 81%
    17:00 +1°C° 0 mm 1 mps 622 mmHg 85%
    18:00 -2°C° 0 mm 0 mps 621 mmHg 90%
    19:00 -1°C° 0 mm 1 mps 621 mmHg 89%
    20:00 -1°C° 0 mm 1 mps 621 mmHg 88%
    21:00 -1°C° 0 mm 1 mps 622 mmHg 87%
    22:00 -2°C° 0 mm 1 mps 621 mmHg 86%
    23:00 -2°C° 0 mm 1 mps 621 mmHg 84%

    25 November, Sunday

    Time Temperature Precipitation Wind Pressure Humidity
    00:00 -2°C° 0 mm 1 mps 621 mmHg 82%
    01:00 -2°C° 0 mm 1 mps 620 mmHg 81%
    02:00 -2°C° 0 mm 1 mps 620 mmHg 79%
    03:00 -2°C° 0 mm 1 mps 620 mmHg 77%
    04:00 -2°C° 0 mm 1 mps 619 mmHg 76%
    05:00 -2°C° 0 mm 1 mps 619 mmHg 75%
    06:00 -3°C° 0 mm 1 mps 619 mmHg 74%
    07:00 -1°C° 0 mm 1 mps 619 mmHg 72%
    08:00 +1°C° 0 mm 1 mps 620 mmHg 70%
    09:00 +1°C° 0 mm 2 mps 620 mmHg 68%
    10:00 +2°C° 0 mm 2 mps 620 mmHg 68%
    11:00 +4°C° 0 mm 2 mps 620 mmHg 68%
    12:00 +5°C° 0 mm 2 mps 620 mmHg 67%
    13:00 +4°C° 0 mm 2 mps 620 mmHg 69%
    14:00 +4°C° 0 mm 2 mps 619 mmHg 71%
    15:00 +3°C° 0 mm 2 mps 619 mmHg 73%
    16:00 +2°C° 0 mm 2 mps 618 mmHg 77%
    17:00 -1°C° 0 mm 2 mps 617 mmHg 81%
    18:00 0°C° 0 mm 1 mps 617 mmHg 85%
    19:00 0°C° 0 mm 1 mps 617 mmHg 84%
    20:00 0°C° 0 mm 1 mps 617 mmHg 83%
    21:00 0°C° 0 mm 1 mps 617 mmHg 82%
    22:00 0°C° 0 mm 1 mps 617 mmHg 83%
    23:00 0°C° 0 mm 1 mps 617 mmHg 85%
    Show more